EW9092 Weather Reports


Display with metric or nautical units.
time (UTC)temp
F
wind
direction
speed
MPH
gust
MPH
rain 1hr
in
rain 24hr
in
rain mn
in
humidity
%
barometer
mb
20260507212849 87 221 2.0 4.0 0.00 0.00 0.00 12 1011.3
20260507212346 87 266 2.0 5.0 0.00 0.00 0.00 12 1011.5
20260507211839 87 329 3.0 9.0 0.00 0.00 0.00 12 1011.5
20260507211546 86 1 4.0 9.0 0.00 0.00 0.00 12 1011.6
20260507210823 86 313 4.0 10.0 0.00 0.00 0.00 12 1011.8
20260507210317 86 44 4.0 15.0 0.00 0.00 0.00 12 1011.9
20260507210024 87 77 3.0 15.0 0.00 0.00 0.00 12 1011.6
20260507205519 87 125 3.0 7.0 0.00 0.00 0.00 12 1011.9
20260507204755 88 39 1.0 7.0 0.00 0.00 0.00 12 1011.9
20260507204244 89 217 1.0 6.0 0.00 0.00 0.00 11 1012.0
20260507203739 89 286 1.0 5.0 0.00 0.00 0.00 11 1012.0
20260507203233 89 305 2.0 7.0 0.00 0.00 0.00 12 1012.1
20260507202722 89 270 3.0 7.0 0.00 0.00 0.00 11 1012.2
20260507202217 89 237 3.0 7.0 0.00 0.00 0.00 11 1012.1
20260507202155 89 196 2.0 7.0 0.00 0.00 0.00 11 1012.2
20260507201201 89 118 2.0 9.0 0.00 0.00 0.00 13 1012.2
20260507200655 88 252 3.0 9.0 0.00 0.00 0.00 12 1012.3
20260507200149 89 75 3.0 10.0 0.00 0.00 0.00 12 1012.4
20260507195638 89 105 4.0 10.0 0.00 0.00 0.00 12 1012.5
20260507195131 89 185 4.0 10.0 0.00 0.00 0.00 11 1012.5
20260507194628 89 101 5.0 11.0 0.00 0.00 0.00 12 1012.5
20260507194118 88 33 5.0 11.0 0.00 0.00 0.00 12 1012.5
20260507193609 88 80 3.0 8.0 0.00 0.00 0.00 13 1012.6
20260507193105 88 129 1.0 4.0 0.00 0.00 0.00 13 1012.6
20260507192554 87 276 3.0 10.0 0.00 0.00 0.00 13 1012.7
20260507192047 86 120 3.0 10.0 0.00 0.00 0.00 13 1012.7
20260507191543 86 356 3.0 10.0 0.00 0.00 0.00 13 1012.9
20260507191033 86 305 3.0 10.0 0.00 0.00 0.00 13 1012.9
20260507190528 87 265 2.0 6.0 0.00 0.00 0.00 13 1013.1
20260507190021 87 310 3.0 8.0 0.00 0.00 0.00 13 1013.2
20260507185511 86 328 4.0 8.0 0.00 0.00 0.00 13 1013.2
20260507185004 86 271 2.0 6.0 0.00 0.00 0.00 14 1013.2
20260507184459 86 250 1.0 5.0 0.00 0.00 0.00 15 1013.3
20260507184213 86 212 2.0 5.0 0.00 0.00 0.00 15 1013.4
20260507183443 85 283 2.0 5.0 0.00 0.00 0.00 15 1013.5
20260507182937 85 248 2.0 9.0 0.00 0.00 0.00 16 1013.5
20260507182427 84 276 2.0 9.0 0.00 0.00 0.00 16 1013.5
20260507181920 84 332 2.0 5.0 0.00 0.00 0.00 16 1013.6
20260507181415 83 19 2.0 6.0 0.00 0.00 0.00 16 1013.7
20260507180904 83 303 2.0 5.0 0.00 0.00 0.00 18 1013.8
20260507180359 83 323 2.0 5.0 0.00 0.00 0.00 17 1013.9
20260507175853 83 330 2.0 5.0 0.00 0.00 0.00 18 1014.0
20260507175343 82 266 2.0 5.0 0.00 0.00 0.00 19 1014.0
20260507174837 83 273 2.0 5.0 0.00 0.00 0.00 18 1014.1
20260507174331 83 313 1.0 4.0 0.00 0.00 0.00 18 1014.2
20260507173821 84 275 0.0 3.0 0.00 0.00 0.00 18 1014.4
20260507173315 83 137 0.0 2.0 0.00 0.00 0.00 18 1014.5
20260507172810 80 59 1.0 3.0 0.00 0.00 0.00 20 1014.6
20260507172259 80 25 1.0 4.0 0.00 0.00 0.00 19 1014.6
20260507171753 80 320 1.0 4.0 0.00 0.00 0.00 20 1014.6
20260507171253 79 285 2.0 4.0 0.00 0.00 0.00 20 1014.7
20260507170747 79 286 2.0 4.0 0.00 0.00 0.00 20 1014.7
20260507170510 79 285 1.0 4.0 0.00 0.00 0.00 20 1014.7
20260507170006 79 278 1.0 4.0 0.00 0.00 0.00 20 1014.8
20260507165247 79 274 0.0 2.0 0.00 0.00 0.00 21 1014.7
20260507164747 78 288 0.0 3.0 0.00 0.00 0.00 21 1014.8
20260507164247 77 281 1.0 3.0 0.00 0.00 0.00 21 1014.8
20260507163746 78 288 0.0 2.0 0.00 0.00 0.00 21 1014.8
20260507163251 78 275 0.0 2.0 0.00 0.00 0.00 21 1014.8
20260507162747 77 243 1.0 3.0 0.00 0.00 0.00 22 1014.9
20260507162508 77 271 1.0 3.0 0.00 0.00 0.00 21 1015.0
20260507161747 78 254 0.0 3.0 0.00 0.00 0.00 21 1015.1
20260507161246 76 278 1.0 2.0 0.00 0.00 0.00 22 1015.1
20260507160747 76 228 1.0 2.0 0.00 0.00 0.00 23 1015.2
20260507160500 75 218 0.0 2.0 0.00 0.00 0.00 23 1015.2
20260507155741 74 278 0.0 2.0 0.00 0.00 0.00 24 1015.2
20260507155241 76 273 0.0 0.0 0.00 0.00 0.00 23 1015.3
20260507154744 74 240 0.0 1.0 0.00 0.00 0.00 25 1015.4
20260507154239 72 240 0.0 2.0 0.00 0.00 0.00 26 1015.3
20260507153739 72 265 0.0 2.0 0.00 0.00 0.00 26 1015.3
20260507153240 71 278 0.0 0.0 0.00 0.00 0.00 27 1015.4
20260507152737 71 266 0.0 1.0 0.00 0.00 0.00 27 1015.3
20260507152234 71 323 1.0 2.0 0.00 0.00 0.00 28 1015.4
20260507151736 70 256 1.0 2.0 0.00 0.00 0.00 28 1015.4
20260507151234 70 320 0.0 2.0 0.00 0.00 0.00 29 1015.4
20260507150739 70 293 0.0 1.0 0.00 0.00 0.00 29 1015.5
20260507150235 69 254 0.0 2.0 0.00 0.00 0.00 29 1015.5
20260507145957 69 8 0.0 2.0 0.00 0.00 0.00 30 1015.5
20260507145232 68 233 0.0 0.0 0.00 0.00 0.00 28 1015.5
20260507144730 68 221 0.0 1.0 0.00 0.00 0.00 30 1015.5
20260507144232 68 221 0.0 1.0 0.00 0.00 0.00 30 1015.5
20260507143953 68 220 0.0 0.0 0.00 0.00 0.00 31 1015.7
20260507143230 68 220 0.0 0.0 0.00 0.00 0.00 31 1015.7
20260507142731 68 220 0.0 0.0 0.00 0.00 0.00 31 1015.7
20260507142231 69 220 0.0 0.0 0.00 0.00 0.00 31 1015.7
20260507141731 68 220 0.0 0.0 0.00 0.00 0.00 32 1015.7
20260507141232 66 220 0.0 0.0 0.00 0.00 0.00 34 1015.7
20260507140733 65 220 0.0 0.0 0.00 0.00 0.00 36 1015.7
20260507140727 64 220 0.0 0.0 0.00 0.00 0.00 37 1015.7
20260507140001 64 221 0.0 0.0 0.00 0.00 0.00 36 1015.7
20260507135231 63 221 0.0 0.0 0.00 0.00 0.00 36 1015.7
20260507134731 62 220 0.0 1.0 0.00 0.00 0.00 40 1015.7
20260507134230 61 220 0.0 1.0 0.00 0.00 0.00 41 1015.7
20260507133731 61 221 0.0 1.0 0.00 0.00 0.00 42 1015.5
20260507133230 60 220 0.0 1.0 0.00 0.00 0.00 44 1015.4
20260507132730 60 172 0.0 0.0 0.00 0.00 0.00 43 1015.4
20260507132231 59 125 0.0 0.0 0.00 0.00 0.00 44 1015.4
20260507131732 59 124 0.0 0.0 0.00 0.00 0.00 44 1015.4
20260507131232 59 125 0.0 0.0 0.00 0.00 0.00 43 1015.3
20260507130731 58 124 0.0 0.0 0.00 0.00 0.00 44 1015.3
20260507130230 57 125 0.0 0.0 0.00 0.00 0.00 47 1015.2
20260507125955 56 122 0.0 0.0 0.00 0.00 0.00 48 1015.3
20260507125230 55 110 0.0 0.0 0.00 0.00 0.00 50 1015.2
20260507124730 54 110 0.0 0.0 0.00 0.00 0.00 52 1015.2
20260507124230 53 110 0.0 0.0 0.00 0.00 0.00 53 1015.2
20260507124000 53 110 0.0 0.0 0.00 0.00 0.00 54 1015.2
20260507123231 53 110 0.0 0.0 0.00 0.00 0.00 56 1015.2
20260507122730 53 110 0.0 0.0 0.00 0.00 0.00 56 1015.2
20260507122229 53 110 0.0 0.0 0.00 0.00 0.00 55 1015.1
20260507121950 53 110 0.0 0.0 0.00 0.00 0.00 55 1015.1
20260507121226 53 110 0.0 0.0 0.00 0.00 0.00 56 1015.1
20260507120722 54 110 0.0 0.0 0.00 0.00 0.00 56 1015.0
20260507120221 54 110 0.0 0.0 0.00 0.00 0.00 56 1015.1
20260507115938 54 110 0.0 1.0 0.00 0.00 0.00 55 1015.1
20260507115210 54 63 0.0 1.0 0.00 0.00 0.00 55 1015.1
20260507114703 54 63 0.0 1.0 0.00 0.00 0.00 55 1015.2
20260507114204 54 63 0.0 2.0 0.00 0.00 0.00 55 1015.2
20260507113700 54 27 0.0 2.0 0.00 0.00 0.00 55 1015.2
20260507113200 55 27 0.0 2.0 0.00 0.00 0.00 53 1015.2
20260507112656 55 22 0.0 2.0 0.00 0.00 0.00 50 1015.1
20260507112156 56 22 0.0 2.0 0.00 0.00 0.00 48 1015.1
20260507111653 56 359 0.0 2.0 0.00 0.00 0.00 46 1015.1
20260507111153 57 146 0.0 1.0 0.00 0.00 0.00 43 1015.1
20260507110649 57 146 0.0 2.0 0.00 0.00 0.00 42 1015.1
20260507105646 57 158 2.0 4.0 0.00 0.00 0.00 42 1015.0
20260507105147 57 149 3.0 4.0 0.00 0.00 0.00 42 1015.0
20260507104647 57 138 3.0 5.0 0.00 0.00 0.00 42 1015.0
20260507104146 57 153 2.0 5.0 0.00 0.00 0.00 43 1015.0
20260507103647 57 146 2.0 4.0 0.00 0.00 0.00 43 1015.1
20260507103630 57 146 1.0 4.0 0.00 0.00 0.00 44 1015.1
20260507102639 56 149 0.0 3.0 0.00 0.00 0.00 44 1015.1
20260507102134 56 217 0.0 2.0 0.00 0.00 0.00 45 1015.1
20260507101628 57 217 0.0 2.0 0.00 0.00 0.00 46 1015.1
20260507101118 57 25 0.0 0.0 0.00 0.00 0.00 46 1015.1
20260507100828 57 8 0.0 0.0 0.00 0.00 0.00 46 1015.1
20260507100105 57 8 0.0 0.0 0.00 0.00 0.00 46 1015.1
20260507095819 57 8 0.0 0.0 0.00 0.00 0.00 46 1015.1
20260507095050 57 8 0.0 0.0 0.00 0.00 0.00 47 1015.2
20260507094544 58 8 0.0 0.0 0.00 0.00 0.00 46 1015.2
20260507094034 58 8 0.0 0.0 0.00 0.00 0.00 45 1015.2
20260507093528 59 8 0.0 3.0 0.00 0.00 0.00 44 1015.2
20260507093022 59 8 0.0 3.0 0.00 0.00 0.00 42 1015.2
20260507092516 60 352 0.0 1.0 0.00 0.00 0.00 40 1015.2
20260507092012 61 27 0.0 2.0 0.00 0.00 0.00 35 1015.3
20260507091510 61 165 1.0 3.0 0.00 0.00 0.00 34 1015.2
20260507091010 62 179 1.0 3.0 0.00 0.00 0.00 33 1015.3
20260507090512 62 139 1.0 3.0 0.00 0.00 0.00 33 1015.3
20260507090009 62 167 1.0 3.0 0.00 0.00 0.00 33 1015.3
20260507085508 62 136 2.0 4.0 0.00 0.00 0.00 32 1015.3
20260507085009 63 134 3.0 5.0 0.00 0.00 0.00 32 1015.4
20260507084506 63 141 3.0 7.0 0.00 0.00 0.00 31 1015.4
20260507084008 63 129 4.0 7.0 0.00 0.00 0.00 31 1015.4
20260507083509 63 122 4.0 8.0 0.00 0.00 0.00 31 1015.5
20260507083005 63 141 4.0 8.0 0.00 0.00 0.00 31 1015.5
20260507082507 63 156 4.0 7.0 0.00 0.00 0.00 31 1015.5
20260507082007 63 137 3.0 6.0 0.00 0.00 0.00 32 1015.5
20260507081507 63 148 3.0 5.0 0.00 0.00 0.00 32 1015.5
20260507081003 63 130 3.0 6.0 0.00 0.00 0.00 31 1015.5
20260507080500 63 125 3.0 6.0 0.00 0.00 0.00 31 1015.5
20260507075956 63 176 3.0 6.0 0.00 0.00 0.00 31 1015.4
20260507075453 63 157 3.0 6.0 0.00 0.00 0.00 31 1015.5
20260507074951 63 162 3.0 6.0 0.00 0.00 0.00 31 1015.5
20260507074451 63 133 3.0 6.0 0.00 0.00 0.00 31 1015.5
20260507073952 63 141 3.0 5.0 0.00 0.00 0.00 31 1015.4
20260507073452 63 148 2.0 4.0 0.00 0.00 0.00 32 1015.3
20260507072952 63 138 2.0 5.0 0.00 0.00 0.00 32 1015.4
20260507072452 63 160 3.0 5.0 0.00 0.00 0.00 32 1015.5
20260507071952 63 151 2.0 5.0 0.00 0.00 0.00 32 1015.4
20260507071453 63 134 1.0 5.0 0.00 0.00 0.00 32 1015.5
20260507070954 63 179 1.0 4.0 0.00 0.00 0.00 32 1015.4
20260507070452 63 231 1.0 4.0 0.00 0.00 0.00 32 1015.4
20260507065954 63 242 2.0 5.0 0.00 0.00 0.00 32 1015.4
20260507065449 64 145 2.0 5.0 0.00 0.00 0.00 32 1015.4
20260507064947 63 220 1.0 4.0 0.00 0.00 0.00 32 1015.5
20260507064446 64 212 1.0 3.0 0.00 0.00 0.00 32 1015.5
20260507063947 64 148 1.0 6.0 0.00 0.00 0.00 32 1015.4
20260507063447 64 147 2.0 6.0 0.00 0.00 0.00 31 1015.4
20260507062947 64 160 2.0 5.0 0.00 0.00 0.00 32 1015.4
20260507062453 64 136 1.0 3.0 0.00 0.00 0.00 33 1015.4
20260507061951 64 134 1.0 3.0 0.00 0.00 0.00 33 1015.4
20260507061712 64 151 1.0 3.0 0.00 0.00 0.00 34 1015.3
20260507060952 64 133 1.0 3.0 0.00 0.00 0.00 34 1015.4
20260507060446 63 166 1.0 3.0 0.00 0.00 0.00 35 1015.3
20260507060208 63 148 0.0 0.0 0.00 0.00 0.00 35 1015.3
20260507055446 64 148 0.0 1.0 0.00 0.00 0.00 34 1015.2
20260507054945 64 148 0.0 2.0 0.00 0.00 0.00 33 1015.2
20260507054700 64 157 0.0 2.0 0.00 0.00 0.00 33 1015.1
20260507053941 64 146 0.0 0.0 0.00 0.00 0.00 34 1015.1
20260507053440 64 219 0.0 0.0 0.00 0.00 0.00 35 1015.1
20260507052939 64 219 0.0 0.0 0.00 0.00 0.00 34 1015.1
20260507052704 65 219 0.0 0.0 0.00 0.00 0.00 34 1015.1
20260507051940 65 219 0.0 0.0 0.00 0.00 0.00 33 1015.1
20260507051436 65 231 0.0 0.0 0.00 0.00 0.00 32 1015.1
20260507051205 65 241 0.0 0.0 0.00 0.00 0.00 32 1015.1
20260507050437 65 241 0.0 0.0 0.00 0.00 0.00 31 1015.0
20260507045933 66 241 0.0 0.0 0.00 0.00 0.00 30 1015.0
20260507045432 66 241 0.0 0.0 0.00 0.00 0.00 30 1015.0
20260507044933 66 241 0.0 0.0 0.00 0.00 0.00 30 1015.0
20260507044650 65 241 0.0 0.0 0.00 0.00 0.00 28 1014.9
20260507043930 66 240 0.0 0.0 0.00 0.00 0.00 27 1014.9
20260507043432 66 241 0.0 0.0 0.00 0.00 0.00 27 1014.9
20260507042929 67 241 0.0 0.0 0.00 0.00 0.00 26 1014.9
20260507042427 68 241 0.0 0.0 0.00 0.00 0.00 25 1014.9
20260507041924 69 240 0.0 3.0 0.00 0.00 0.00 25 1014.8
20260507041421 69 241 0.0 3.0 0.00 0.00 0.00 25 1014.8
20260507040922 69 45 0.0 0.0 0.00 0.00 0.00 25 1014.8
20260507040420 69 45 0.0 0.0 0.00 0.00 0.00 25 1014.7
20260507035921 70 45 0.0 2.0 0.00 0.00 0.00 24 1014.7
20260507035644 70 45 0.0 2.0 0.00 0.00 0.00 23 1014.6
20260507035144 71 11 1.0 5.0 0.00 0.00 0.00 22 1014.6
20260507034417 71 266 2.0 5.0 0.00 0.00 0.00 21 1014.6
20260507033913 71 286 3.0 7.0 0.00 0.00 0.00 21 1014.5
20260507033418 71 283 2.0 7.0 0.00 0.00 0.00 21 1014.4
20260507032915 71 272 2.0 7.0 0.00 0.00 0.00 21 1014.4
20260507032416 71 266 2.0 5.0 0.00 0.00 0.00 21 1014.2
20260507031906 71 262 2.0 4.0 0.00 0.00 0.00 21 1014.1
20260507031401 72 274 2.0 5.0 0.00 0.00 0.00 21 1014.2
20260507030854 72 274 2.0 5.0 0.00 0.00 0.00 21 1014.1
20260507030353 72 285 3.0 5.0 0.00 0.00 0.00 20 1014.1
20260507025853 72 262 2.0 6.0 0.00 0.00 0.00 20 1014.0
20260507025614 73 294 3.0 7.0 0.00 0.00 0.00 21 1014.0
20260507025344 73 285 3.0 7.0 0.00 0.00 0.00 20 1013.9
20260507024357 73 278 3.0 7.0 0.00 0.00 0.00 20 1013.9
20260507024122 73 295 3.0 7.0 0.00 0.00 0.00 20 1013.9
20260507023617 73 276 2.0 7.0 0.00 0.00 0.00 21 1013.9
20260507022857 73 295 2.0 7.0 0.00 0.00 0.00 21 1013.8
20260507022350 74 259 3.0 7.0 0.00 0.00 0.00 21 1013.8
20260507021853 74 281 3.0 6.0 0.00 0.00 0.00 21 1013.7
20260507021357 74 252 3.0 6.0 0.00 0.00 0.00 21 1013.7
20260507021126 74 278 2.0 5.0 0.00 0.00 0.00 21 1013.7
20260507020354 75 270 3.0 6.0 0.00 0.00 0.00 20 1013.7
20260507015852 75 278 3.0 6.0 0.00 0.00 0.00 20 1013.7
20260507015353 76 258 3.0 6.0 0.00 0.00 0.00 20 1013.7
20260507015118 76 283 3.0 6.0 0.00 0.00 0.00 20 1013.6
20260507014353 77 302 2.0 5.0 0.00 0.00 0.00 20 1013.6
20260507014336 77 294 2.0 9.0 0.00 0.00 0.00 20 1013.7
20260507013614 77 302 3.0 9.0 0.00 0.00 0.00 20 1013.6
20260507012854 77 290 4.0 8.0 0.00 0.00 0.00 20 1013.6
20260507012353 77 238 4.0 8.0 0.00 0.00 0.00 20 1013.6
20260507012111 78 240 2.0 7.0 0.00 0.00 0.00 20 1013.5
20260507011609 78 305 3.0 7.0 0.00 0.00 0.00 21 1013.5
20260507011113 78 252 4.0 7.0 0.00 0.00 0.00 20 1013.6
20260507010346 78 285 4.0 7.0 0.00 0.00 0.00 20 1013.6
20260507005846 78 283 4.0 10.0 0.00 0.00 0.00 20 1013.6
20260507005345 78 264 4.0 10.0 0.00 0.00 0.00 20 1013.6
20260507004846 78 293 3.0 8.0 0.00 0.00 0.00 20 1013.6
20260507004347 78 293 3.0 6.0 0.00 0.00 0.00 20 1013.6
20260507003845 79 280 3.0 6.0 0.00 0.00 0.00 20 1013.6
20260507003346 79 288 3.0 6.0 0.00 0.00 0.00 20 1013.6
20260507003106 79 288 2.0 6.0 0.00 0.00 0.00 20 1013.5
20260507002345 79 319 2.0 6.0 0.00 0.00 0.00 19 1013.5
20260507001843 79 339 2.0 6.0 0.00 0.00 0.00 19 1013.5
20260507001343 79 326 3.0 7.0 0.00 0.00 0.00 19 1013.5
20260507000843 79 294 3.0 8.0 0.00 0.00 0.00 19 1013.5
20260507000344 80 291 3.0 8.0 0.00 0.00 0.00 20 1013.4
20260506235841 80 295 2.0 6.0 0.00 0.00 0.00 20 1013.5
20260506235607 80 337 2.0 4.0 0.00 0.00 0.00 19 1013.5
20260506234840 79 230 3.0 7.0 0.00 0.00 0.00 20 1013.5
20260506234340 79 314 3.0 7.0 0.00 0.00 0.00 20 1013.5
20260506233841 79 14 3.0 8.0 0.00 0.00 0.00 20 1013.5
20260506233340 79 261 3.0 8.0 0.00 0.00 0.00 20 1013.5
20260506232842 79 272 3.0 7.0 0.00 0.00 0.00 20 1013.5
20260506232335 80 326 2.0 6.0 0.00 0.00 0.00 20 1013.5
20260506231829 79 338 2.0 7.0 0.00 0.00 0.00 21 1013.6
20260506231317 80 277 2.0 8.0 0.00 0.00 0.00 21 1013.6
20260506230813 79 217 3.0 9.0 0.00 0.00 0.00 21 1013.6
20260506230307 79 281 3.0 9.0 0.00 0.00 0.00 21 1013.7
20260506225757 79 256 3.0 8.0 0.00 0.00 0.00 21 1013.8
20260506225251 79 233 4.0 10.0 0.00 0.00 0.00 21 1013.7
20260506224745 79 329 3.0 10.0 0.00 0.00 0.00 21 1013.7
20260506224235 79 273 2.0 7.0 0.00 0.00 0.00 21 1013.7
20260506223728 79 312 3.0 7.0 0.00 0.00 0.00 22 1013.8
20260506223223 78 44 3.0 7.0 0.00 0.00 0.00 22 1013.9
20260506222713 79 76 3.0 9.0 0.00 0.00 0.00 22 1013.9
20260506222208 79 246 4.0 9.0 0.00 0.00 0.00 22 1013.9
20260506221701 79 285 3.0 9.0 0.00 0.00 0.00 22 1013.9
20260506221412 79 279 3.0 8.0 0.00 0.00 0.00 23 1014.0
20260506220725 79 291 3.0 8.0 0.00 0.00 0.00 23 1014.0
20260506215629 79 303 2.0 6.0 0.00 0.00 0.00 24 1014.1
20260506215121 79 237 2.0 6.0 0.00 0.00 0.00 24 1014.2
20260506214617 78 243 2.0 6.0 0.00 0.00 0.00 24 1014.2
20260506214102 79 29 2.0 4.0 0.00 0.00 0.00 24 1014.4
20260506213556 78 64 2.0 4.0 0.00 0.00 0.00 23 1014.5